Home > Weather > Wakefield > Past weeks

Flag for United Kingdom Weather for the Past 2 Weeks in Wakefield, England, United Kingdom

Now
37 °F

Passing clouds.


Feels Like: 30 °F
Forecast: 38 / 51 °F
Wind: 10 mph from Southwest

Location: Leeds And Bradford

Current Time: Feb 6, 2016 at 12:53:46 AM

Latest Report: Feb 6, 2016 at 12:20 AM


Visibility: N/A

Pressure: 29.59 "Hg

Humidity: 100%

Dew point: 37 °F

Location of WakefieldLocation

Historic Weather in Wakefield — Graph

°F

Wakefield Temperature Yesterday

Maximum temperature yesterday: 48 °F (at 12:20 AM)
Minimum temperature yesterday: 39 °F (at 10:20 PM)
Average temperature yesterday: 46 °F

High & Low Weather Summary for the Past Weeks

 TemperatureHumidityPressure
High55 °F (Jan 24, 2:20 PM)100% (Jan 22, 1:20 AM)30.30 "Hg (Jan 22, 1:20 AM)
Low32 °F (Jan 30, 2:20 PM)62% (Jan 29, 12:20 PM)29.36 "Hg (Jan 27, 9:50 AM)
Average44 °F88%29.83 "Hg
* Reported Jan 21 11:20 PM — Feb 5 11:20 PM, Wakefield, Weather by CustomWeather, © 2016

Note: Actual official high and low records may vary slightly from our data, if they occured in-between our weather recording intervals... More about our weather records

Advertising

Wakefield Weather History for the Previous 24 Hours

 ConditionsComfort  
Time TempWeatherWind HumidityBarometerVisibility
11:20 PM
Fri, Feb 5
39 °FPassing clouds.13 mph93%29.59 "HgN/A
10:20 PM39 °FLight rain. Passing clouds.16 mph100%29.59 "HgN/A
9:50 PM41 °FLight rain. Passing clouds.15 mph93%29.59 "HgN/A
9:20 PM43 °FLight rain. Passing clouds.15 mph93%29.56 "HgN/A
8:50 PM46 °FLight rain. Passing clouds.14 mph93%29.56 "HgN/A
8:20 PM46 °FLight rain. Passing clouds.17 mph93%29.56 "HgN/A
7:50 PM46 °FLight rain. Passing clouds.21 mph87%29.56 "HgN/A
7:20 PM46 °FLight rain. Passing clouds.20 mph87%29.59 "HgN/A
6:50 PM48 °FSprinkles. Partly cloudy.18 mph76%29.59 "HgN/A
6:20 PM48 °FPassing clouds.18 mph76%29.62 "HgN/A
5:50 PM48 °FPassing clouds.22 mph76%29.62 "HgN/A
5:20 PM48 °FPartly cloudy.17 mph76%29.65 "HgN/A
4:50 PM48 °FBroken clouds.14 mph82%29.65 "HgN/A
4:20 PM46 °FScattered clouds.16 mph87%29.68 "HgN/A
3:50 PM48 °FScattered clouds.18 mph82%29.68 "HgN/A
3:20 PM48 °FScattered clouds.18 mph82%29.71 "HgN/A
2:50 PM48 °FScattered clouds.18 mph82%29.74 "HgN/A
2:20 PM48 °FSprinkles. Scattered clouds.17 mph82%29.74 "HgN/A
1:50 PM48 °FScattered clouds.15 mph82%29.77 "HgN/A
1:20 PM46 °FScattered showers. Scattered clouds.17 mph87%29.80 "HgN/A
12:50 PM48 °FScattered clouds.17 mph76%29.80 "HgN/A
12:20 PM48 °FScattered clouds.21 mph82%29.83 "HgN/A
11:50 AM48 °FScattered clouds.22 mph82%29.83 "HgN/A
11:20 AM46 °FScattered clouds.20 mph87%29.86 "HgN/A
10:50 AM46 °FScattered clouds.21 mph87%29.86 "HgN/A
10:20 AM46 °FScattered clouds.14 mph87%29.89 "HgN/A
9:50 AM46 °FScattered clouds.9 mph82%29.89 "HgN/A
9:20 AM46 °FScattered clouds.15 mph87%29.92 "HgN/A
8:50 AM46 °FScattered clouds.13 mph87%29.92 "HgN/A
8:20 AM46 °FScattered clouds.13 mph87%29.92 "HgN/A
7:50 AM45 °FScattered clouds.13 mph93%29.95 "HgN/A
7:20 AM45 °FPassing clouds.15 mph93%29.95 "HgN/A
6:50 AM45 °FPassing clouds.18 mph93%29.95 "HgN/A
6:20 AM45 °FPassing clouds.13 mph93%29.95 "HgN/A
5:20 AM46 °FPartly cloudy.17 mph87%29.98 "HgN/A
4:50 AM46 °FPassing clouds.17 mph82%29.98 "HgN/A
4:20 AM46 °FPassing clouds.17 mph87%29.98 "HgN/A
3:50 AM46 °FPassing clouds.16 mph93%30.01 "HgN/A
3:20 AM46 °FPassing clouds.14 mph93%30.04 "HgN/A
2:50 AM48 °FPassing clouds.14 mph87%30.04 "HgN/A
2:20 AM46 °FPassing clouds.14 mph93%30.07 "HgN/A
1:50 AM46 °FLight rain. Passing clouds.14 mph100%30.07 "HgN/A
1:20 AM48 °FLight rain. Passing clouds.16 mph94%30.07 "HgN/A
12:50 AM48 °FPassing clouds.13 mph94%30.09 "HgN/A
12:20 AM48 °FPassing clouds.16 mph94%30.09 "HgN/A
Weather by CustomWeather, © 2016

See weather overviewHow to use our weather pages